Regional Weather Roundup
Issued by NWS Cleveland, OH

Home | Current Version | Previous Version | Graphics & Text | Print | Product List | Glossary On
Versions: 1 2 3 4 5 6 7 8 9 10 11 12 13 14 15 16 17 18 19 20 21 22 23 24 25 26 27 28 29 30 31 32 33 34 35 36 37 38 39 40 41 42 43 44 45 46 47 48 49 50
000
ASUS41 KCLE 201402
RWRCLE
OHIO REGIONAL WEATHER ROUNDUP
NATIONAL WEATHER SERVICE CLEVELAND, OH
1000 AM EDT SUN APR 20 2014

NOTE: "FAIR" INDICATES FEW OR NO CLOUDS BELOW 12,000 FEET WITH NO
SIGNIFICANT WEATHER AND/OR OBSTRUCTIONS TO VISIBILITY.

OHZ001>008-015>018-024>027-034-035-043-044-201500-
   NORTHWEST OHIO

CITY           SKY/WX    TMP DP  RH WIND       PRES   REMARKS
DEFIANCE       SUNNY     50  36  58 VRB3      30.29F
FINDLAY        SUNNY     55  35  47 SE6       30.27F
TOLEDO EXPRESS SUNNY     52  36  54 VRB3      30.29F
TOLEDO EXEC    SUNNY     52  37  56 CALM      30.30F
LIMA           SUNNY     59  33  37 SE8       30.27F
$$

OHZ009>014-019>023-028>033-038-089-201500-
   NORTHEAST OHIO

CITY           SKY/WX    TMP DP  RH WIND       PRES   REMARKS
CLE-HOPKINS    MOSUNNY   60  30  32 S12       30.33S
CLE-LAKEFRONT  HVY RAIN  58  30  34 SE12      30.29F
CUY CO. ARPT   PTSUNNY   59  30  33 S14       30.32F
LORAIN-ELYRIA  SUNNY     57  35  43 S6        30.31S
ASHTABULA      SUNNY     55  29  36 S10       30.35S
AKRON-CANTON   PTSUNNY   57  28  32 SE9       30.32S
WOOSTER        SUNNY     56  35  45 SE9       30.30F
MANSFIELD      SUNNY     55  33  43 S9        30.30S
YOUNGSTOWN     PTSUNNY   54  27  35 SE8       30.34S
$$

OHZ042-051>053-060>062-070>072-077>081-201500-
  SOUTHWEST OHIO

CITY           SKY/WX    TMP DP  RH WIND       PRES   REMARKS
CINC-COVINGTON MOSUNNY   59  33  37 SE6       30.27R
CINC-LUNKEN    SUNNY     54  37  52 CALM      30.28S
HAMILTON       SUNNY     56  38  50 CALM      30.29S
DAYTON         PTSUNNY   56  34  43 E6        30.28F
WRIGHT-PAT AFB SUNNY     56  35  44 SE8       30.28S
DAYTON GENERAL SUNNY     57  34  41 SE5       30.27S
WILMINGTON     SUNNY     55  35  47 E6        30.27S
$$

OHZ036-037-039>041-045>050-054>059-063>069-073>076-082>088-201500-
  CENTRAL AND SOUTHEAST OHIO

CITY           SKY/WX    TMP DP  RH WIND       PRES   REMARKS
COLUMBUS       PTSUNNY   59  32  36 SE8       30.28F
OSU AIRPORT    SUNNY     56  32  40 E6        30.29F
BOLTON FIELD   SUNNY     54  36  50 E5        30.29S
RICKENBACK AFB NOT AVBL
NEWARK         SUNNY     56  33  42 E3        30.29S
MARION         SUNNY     56  34  43 S12       30.29F
LANCASTER      MOSUNNY   56  36  47 SE8       30.29S
ZANESVILLE     SUNNY     60  31  33 SE8       30.30F
NEW PHILLY     SUNNY     57  29  34 VRB6      30.32F
$$



USA.gov is the U.S. government's official web portal to all federal, state and local government web resources and services.